STARLINK-1681, 46559

Orbit data source: Space-Track

STARLINK-1681, 46559 is a payload satellite owned by SpaceX/Seattle (US) in LEO that was launched on Tue, 06 Oct 2020 UTC via an FALCON 9 launch vehicle from the Air Force Eastern Test Range (AFETR). Payload-class satellites include a variety of spacecraft equipped with specific instruments for various scientific and technological missions. These include communications satellites like Starlink; space stations such as the ISS; scientific satellites like the Hubble; Earth observation satellites from companies like Planet Labs, Umbra, and HawkEye 360; GPS; miniature CubeSats for education and research; and military/defense satellites.

Loading next visibility...
Identifier
46559, 2020-070AD
Orbit
LEO
Country
Flag of USUS
Related business
Manufacturer
SpaceX/Seattle
Mission
Partially operational Commercial Communications
Bus & Motor
STARLINK, Unknown motor
Mass
260 kg wet, ~248 kg dry
Launch date (UTC)
2020-10-06 (5 years ago)
Launch vehicle
FALCON 9
Launch site
Air Force Eastern Test Range (AFETR)
Object type
Payload
Rocket body
Debris
Shape & HBR
Box + 1 Pan, 10.1 m
Radar Cross Section
13.562 m², Large (>1 m²)

Expand to show TLE details & history
Last TLE update: 7 hours ago

TLE from 7 hours ago
0 STARLINK-1681
1 46559U 20070AD  25294.57359409  .00108823  00000-0  29255-2 0  9999
2 46559  53.0633  25.8824 0010074 283.5825  76.4056 15.37016511279315
Epoch: 2025-10-21T13:45Z
TLE epoch observation values (Epoch: 2025-10-21T13:45:58.529Z)
Latitude
0.00005°
Longitude
149.12896°
Altitude
454.218 km
Speed
7.642 km/s
True Right ascension
01h 43m 31s
True Declination
0° 00' 00"
Sunlit
Object was in full shadow at epoch
Visualization orbit readout
Latitude
Unknown
Longitude
Unknown
Altitude
Unknown
Speed
Unknown
Apparent Right ascension
Unknown
Apparent Declination
Unknown
Sunlit
N/A
Visualization observer readout
Local Sidereal Time
15:34:15
Azimuth
Unknown
Elevation
Unknown
Doppler factor
Unknown
Orbital elements
Apogee altitude
462.094 km
Perigee altitude
448.326 km
Semi-major axis
6,833.347 km
Eccentricity
0.00101
Inclination
53.0633°
RAAN
25.8824°
Arg. of periapsis
283.5825°
True anomaly
76.51784°
Mean anomaly
76.4056°
Eccentric anomaly
76.46172°
Mean motion
3.84231 °/min
Orbital period
93.69 mins
BSTAR
0.0029255
Loading maneuver chart data...
Computing Atmospheric mass density...
Loading historical data...
Loading historical data...
Loading historical data...
Loading historical data...
Loading historical data...
Loading historical data...
Loading historical data...

Documentation

Showing up to 5 results
|